リニア彗星

256P/LINEAR (2023)

English version
Home page
Updated on October 14, 2023

---------------------------------------------------------------------

・ プロフィール

・ 写真集

・ 軌道要素

Epoch 2023 Feb. 25.0 TT = JDT 2460000.5
T 2023 Mar. 12.23505 TT                                 Rudenko
q   2.7003162            (2000.0)            P               Q
n   0.09862317     Peri.  124.19338     -0.80922971     +0.36757675
a   4.6396307      Node    81.33032     -0.56089497     -0.71545159
e   0.4179890      Incl.   27.61917     +0.17476876     -0.59415179
P   9.99
>From 203 observations 2003 Jan. 27-2023 Feb. 26, mean residual 0".9.

・ 光度変化

        m1 = 13.5 + 5 logΔ + 10.0 log r

---------------------------------------------------------------------

軌道要素はM.P.E.C. 2023-D72に掲載されたものです。
光度グラフはComet for Windowsで作成したものです。

---------------------------------------------------------------------

Copyright(C) Seiichi Yoshida (comet@aerith.net). All rights reserved.